Simultaneous Nadir Overpasses (SNOs) Predictions

Prediction of SNOs between GOES-16 and METOP-A Satellite Orbit:

Table of predicted SNOs for the next 14.0 days since TLE Epoch: 7/24/2021
Index Date Time (GOES-16) GOES-16 Lat,Lon METOP-A Lat,Lon Distance(km) Time Diff (sec)
1 07/25/2021 01:06:43 0.07, -75.19 0.01, -75.51 36.09 80
2 07/27/2021 13:02:14 -0.07, -75.25 -0.10, -75.14 13.31 80
3 07/30/2021 01:00:34 0.07, -75.25 0.18, -74.80 52.39 80
4 07/31/2021 13:22:05 -0.06, -75.32 0.81, -79.40 464.74 80
5 08/01/2021 12:58:45 -0.07, -75.33 -0.27, -74.42 104.07 80
6 08/03/2021 01:20:24 0.06, -75.33 -0.78, -79.05 424.31 80
7 08/04/2021 00:57:04 0.07, -75.35 0.36, -74.08 144.55 80
8 08/05/2021 13:18:35 -0.05, -75.41 0.69, -78.67 372.08 80
9 08/06/2021 12:55:15 -0.07, -75.43 -0.45, -73.70 197.04 80
